Location: *
(52.3667°N, 8.3167°E)
Time: 22:55:29
(UTC+00:00)

Daily predictions for brighter satellites

Satellite Brightness Start Highest point End
(mag) Time Altitude Azimuth Time Altitude Azimuth Time Altitude Azimuth
ASTEX 1 4.2 18:05:48 10° NNE 18:10:05 29° E 18:14:20 10° SE
Cosmos 1544 4.0 18:07:51 10° SSE 18:10:52 26° E 18:13:55 10° NNE
CZ-4 R/B 3.2 18:09:41 10° SSW 18:13:16 36° W 18:16:57 10° NNW
COSMOS 2455 3.4 18:10:37 10° NW 18:16:35 63° WSW 18:22:30 10° SSE
GEOS 3 Rocket 4.1 18:11:45 10° SSE 18:16:48 62° SW 18:21:55 10° NW
CZ-4C R/B 3.6 18:12:37 10° W 18:17:55 41° NNW 18:24:13 10° NE
Cosmos 2237 Rocket 2.8 18:13:33 10° NNW 18:18:59 43° NE 18:24:24 10° ESE
Cosmos 2154 Rocket 4.1 18:16:54 10° N 18:23:04 61° ENE 18:29:12 10° SSE
FREGAT/IRIS 2.5 18:21:23 10° SSE 18:24:08 54° ENE 18:26:55 10° N
Cosmos 1441 Rocket 3.8 18:21:42 10° SSE 18:25:12 35° E 18:28:41 10° NNE
USA 32 4.4 18:20:52 10° N 18:26:06 73° W 18:31:19 10° S
Cosmos 1980 4.0 18:22:25 10° NNW 18:27:56 50° NE 18:33:24 10° SE
ERBS 3.3 18:25:06 10° WNW 18:28:20 38° N 18:31:31 10° ENE
Cosmos 389 Rocket 3.4 18:27:12 10° N 18:30:15 28° ENE 18:33:05 11° SE
SL-8 R/B 4.4 18:32:49 10° SW 18:37:11 36° SSE 18:40:55 13° E
Cosmos 1674 4.5 18:36:01 10° NNE 18:38:20 16° ENE 18:39:42 13° E
Cosmos 2184 Rocket 4.3 18:32:25 10° NNW 18:38:38 73° W 18:44:52 10° S
Aureole 1 Rocket 3.9 18:34:13 10° NNW 18:39:58 64° WSW 18:44:15 10° S
SJ-6B 2.9 18:39:01 10° SSE 18:43:05 62° ENE 18:47:09 10° N
Resurs 1-3 4.3 18:39:28 11° SE 18:43:11 35° ENE 18:47:12 10° N
CZ-2C R/B 3.9 18:39:01 12° ESE 18:43:23 34° ENE 18:48:20 10° N
Cosmos 1707 2.8 18:39:30 10° N 18:43:24 59° ENE 18:47:15 10° SSE
MOS 1 4.4 18:38:51 10° SSE 18:44:34 83° WSW 18:50:18 10° NNW
Ariane Rocket 3.8 18:40:14 10° S 18:45:11 54° W 18:50:11 10° NNW
Resurs 01 Rocket 2.6 18:42:02 14° ESE 18:45:14 30° ENE 18:49:08 10° N
Meteor 1-4 Rocket 3.3 18:42:23 10° N 18:45:40 32° ENE 18:47:52 17° SE
Okean 1 Rocket 3.0 18:41:26 10° S 18:45:41 60° E 18:50:01 10° NNE
SL-16 R/B 3.2 18:42:52 10° NNW 18:47:58 33° NE 18:51:53 16° E
GP-B 3.4 18:45:03 10° N 18:49:30 74° W 18:53:55 10° S
Cosmos 1939 Rocket 4.2 18:45:52 10° S 18:49:32 41° W 18:53:13 10° NNW
NOSS 3-4 (A) 3.9 18:44:51 10° NW 18:51:44 83° SW 18:59:02 11° SE
NOSS 3-4 (C) 3.9 18:44:57 10° NW 18:51:51 84° SW 18:59:07 11° SE
USA 186 1.8 18:49:27 10° SSE 18:52:49 88° E 18:56:18 10° NNW
Cosmos 407 Rocket 3.5 18:48:49 10° NNW 18:53:57 63° ENE 18:58:21 14° SE
COSMOS 2428 3.3 18:51:42 10° NW 18:57:16 57° WSW 19:02:48 10° S
Cosmos 2219 Rocket 2.8 18:52:08 10° NW 18:57:37 57° WSW 19:03:05 10° S
Cosmos 614 Rocket 4.0 18:52:28 10° NNW 18:57:42 65° ENE 19:02:02 15° SE
NOSS 3-3 (A) 4.0 18:57:26 10° SW 19:03:30 90° SSE 19:10:25 10° NE
NOSS 3-3 (C) 4.0 18:57:32 10° SW 19:03:37 89° SE 19:10:32 10° NE
SPOT 3 Rocket 3.6 19:03:36 10° SSE 19:08:45 81° WSW 19:13:57 10° NNW
Meteor 1-12 Rocket 4.5 19:03:19 10° SSW 19:09:02 75° WNW 19:14:45 10° N
CZ-2C R/B 4.0 19:10:19 10° NE 19:14:13 19° E 19:14:19 19° E
Nadezhda 1 Rocket 4.1 19:08:15 10° SSW 19:14:20 77° WNW 19:20:27 10° N
Cosmos 1954 Rocket 4.3 19:09:32 10° NNW 19:14:40 51° ENE 19:17:33 24° ESE
USA 234 3.7 19:10:20 10° ENE 19:16:41 61° N 19:23:08 10° W
Meteor 1-15 Rocket 4.3 19:11:25 10° S 19:17:05 60° E 19:22:51 10° NNE
Cosmos 1892 Rocket 3.5 19:12:47 10° N 19:17:17 76° ENE 19:20:44 17° SSE
Timation 2 Rocket 4.2 19:11:11 10° SW 19:17:46 79° NW 19:24:06 10° NNE
Okean 1-7 Rocket 3.5 19:14:37 10° N 19:19:04 81° ENE 19:22:38 16° SSE
NOSS 0 Rocket 4.3 19:14:30 10° NW 19:20:39 64° WSW 19:26:26 12° SSE
ERS-1 Rocket 4.3 19:20:29 20° E 19:21:57 23° ENE 19:25:50 10° N
Spot 2 Rocket 3.9 19:20:07 26° ESE 19:22:29 43° ENE 19:27:14 10° N
Cosmos 2219 3.3 19:18:32 10° S 19:24:04 51° ESE 19:29:38 10° NE
Cosmos 1140 Rocket 3.4 19:18:50 10° NNW 19:24:04 74° ENE 19:27:07 25° SE
Terra 3.8 19:23:12 13° ENE 19:24:09 14° NE 19:26:36 10° NNE
ADEOS Rocket 3.5 19:18:15 10° NNE 19:25:22 62° E 19:32:58 10° S
Cosmos 2227 Rocket 2.8 19:20:36 10° SSE 19:25:35 33° ESE 19:30:36 10° NE
CZ-2C R/B 4.0 19:26:00 10° N 19:30:29 68° WNW 19:34:54 10° SSW
Cosmos 1437 Rocket 2.9 19:27:30 10° N 19:31:17 51° ENE 19:32:05 42° ESE
Cosmos 1371 Rocket 4.0 19:28:54 10° S 19:34:06 58° ESE 19:39:23 10° NNE
RESURS DK-1 3.7 19:31:12 10° NNW 19:34:45 26° NE 19:35:39 24° ENE
ATLAS 2AS CENTAUR R/B 3.9 19:27:57 10° NW 19:35:02 41° WSW 19:41:37 10° S
MetOp-B 4.4 19:33:43 30° SE 19:36:04 52° ENE 19:41:16 10° N
ARGOS 3.4 19:31:11 11° S 19:36:26 71° WSW 19:41:50 10° NNW
Cosmos 2297 Rocket 2.5 19:31:20 10° S 19:36:35 41° ESE 19:41:53 10° NE
H-2A R/B 2.4 19:35:31 11° S 19:40:16 61° WSW 19:45:17 10° NNW
Cosmos 405 Rocket 2.4 19:40:22 29° S 19:42:06 77° ESE 19:45:51 10° NNE
Cosmos 1626 3.8 19:39:19 10° NNE 19:41:29 20° NE 19:41:29 20° NE
Cosmos 676 Rocket 3.9 19:40:20 10° NNW 19:45:40 88° ENE 19:48:04 34° SSE
Cosmos 2341 Rocket 4.4 19:39:33 10° NNW 19:45:44 62° W 19:51:50 10° S
Meteor 1-24 Rocket 3.7 19:40:03 10° N 19:45:45 70° ENE 19:48:37 31° SSE
Cosmos 1461 3.4 19:43:45 10° WSW 19:47:40 55° NW 19:51:36 10° NE
Cosmos 2333 Rocket 4.2 19:45:41 10° NW 19:50:13 25° WSW 19:54:46 10° SSW
Cosmos 2181 Rocket 3.9 19:46:28 10° S 19:52:43 87° E 19:59:07 10° N
GENESIS II 4.5 19:52:51 10° NW 19:56:57 66° SW 19:57:40 53° S
Meteor 2-5 Rocket 3.9 19:54:06 10° NNW 19:59:52 73° W 20:03:38 23° S
MetOp-A 4.4 19:57:57 22° S 20:01:23 66° WSW 20:06:45 10° NNW
Cosmos 1544 Rocket 3.4 20:00:48 40° S 20:02:22 82° E 20:06:53 10° NNE
Cosmos 2237 Rocket 3.1 19:57:43 10° NW 20:03:08 45° WSW 20:06:39 21° S
Cosmos 1455 Rocket 3.1 20:00:39 25° SSW 20:03:15 82° W 20:07:44 10° N
USA 245 4.4 20:02:03 40° SE 20:04:20 66° ENE 20:10:06 10° N
Cosmos 1805 3.3 20:04:51 61° NE 20:04:51 61° NE 20:08:17 10° NNE
ERBS 2.6 20:01:35 10° WNW 20:04:33 66° WNW 20:04:33 66° WNW
Nadezhda 3 Rocket 4.3 20:06:22 40° ESE 20:06:58 41° E 20:12:43 10° NNE
Cosmos 2218 Rocket 4.3 20:00:56 10° NNW 20:07:19 70° W 20:11:47 20° S
CZ-4C R/B 4.0 20:02:35 10° WNW 20:08:03 32° N 20:14:23 10° ENE
Cosmos 2366 rocket 4.3 20:07:17 10° NNW 20:13:37 68° W 20:17:48 22° S
Transit 2A Rocket 4.5 20:09:14 10° NW 20:13:45 68° NE 20:13:56 67° ENE
Cosmos 1674 3.0 20:10:35 10° NNW 20:14:15 57° W 20:14:32 55° WSW
Cosmos 1850 Rocket 3.9 20:12:25 10° NNW 20:17:38 70° ENE 20:18:18 62° ESE
SL-8 R/B 3.9 20:14:35 10° WSW 20:18:54 53° SSW 20:18:54 53° SSW
Cosmos 1626 Rocket 3.6 20:15:08 10° NNW 20:19:28 73° W 20:19:56 65° SSW
SPOT 5 3.3 20:21:03 46° ENE 20:21:03 46° ENE 20:25:44 10° N
Resurs 01 Rocket 2.8 20:19:38 25° SSW 20:21:38 39° W 20:25:50 10° NNW
Meteor 1-22 Rocket 4.3 20:19:02 32° S 20:22:02 81° E 20:28:11 10° NNE
Cosmos 1821 Rocket 3.9 20:16:52 10° N 20:23:03 66° ENE 20:24:15 54° SE
CZ-2C R/B 4.0 20:20:05 23° SSW 20:23:08 47° W 20:28:27 10° NNW
Cosmos 1825 Rocket 4.3 20:21:57 10° N 20:25:16 40° NE 20:25:16 40° NE
Cosmos 1603 4.1 20:21:51 10° NNW 20:27:21 49° NE 20:28:05 46° ENE
Landsat 7 3.7 20:29:41 72° ENE 20:29:41 72° ENE 20:34:25 10° N
SL-14 R/B 3.8 20:27:10 10° N 20:30:22 54° N 20:30:22 54° N
DMSP B5D2-2 4.1 20:26:20 10° NNE 20:31:39 81° WNW 20:33:46 38° SSW
SL-16 R/B 2.4 20:26:52 10° NW 20:32:30 64° WSW 20:33:46 50° SSW
Cosmos 2056 Rocket 3.9 20:27:54 10° SW 20:33:18 65° WNW 20:38:42 10° NNE
Cosmos 1758 Rocket 4.2 20:30:32 10° N 20:33:52 47° NNE 20:33:52 47° NNE
SPOT 1/Viking Rocket 3.4 20:38:50 80° ESE 20:39:06 83° ENE 20:44:18 10° NNW
Cosmos 1602 Rocket 3.9 20:34:58 10° NNW 20:39:16 57° W 20:39:20 57° W
Cosmos 1420 Rocket 3.9 20:41:54 75° ENE 20:41:54 75° ENE 20:46:56 10° NNE
Cosmos 1766 4.3 20:44:57 43° WNW 20:45:02 43° WNW 20:48:49 10° N
Cosmos 1741 Rocket 4.0 20:40:34 10° NNW 20:45:55 77° WSW 20:46:11 75° SW
IGS 5A 4.2 20:51:34 51° NNW 20:51:34 51° NNW 20:54:44 10° NNW
Cosmos 2082 3.6 20:50:22 80° SSE 20:50:37 84° ESE 20:56:23 10° NNE
CZ-2C R/B 2.7 20:49:37 10° NNE 20:55:11 84° WNW 20:55:49 71° SW
BREEZE M DEB (TANK) 4.1 20:53:01 10° W 20:54:23 28° WSW 20:54:23 28° WSW
USA 234 3.3 20:57:41 51° E 20:59:25 72° NNE 21:05:57 10° WNW
ERS-1 Rocket 3.1 21:00:29 69° W 21:00:29 69° W 21:05:21 10° NNW
Terra 2.3 21:02:05 54° N 21:02:05 54° N 21:05:52 10° NNW
Thor Agena Rocket 4.5 21:03:25 10° NNE 21:06:54 39° NE 21:06:54 39° NE
Cosmos 2227 Rocket 2.8 21:03:52 10° SW 21:09:25 55° NW 21:15:01 10° NNE
Meteor 1-21 Rocket 4.3 21:05:17 10° NNW 21:11:10 79° W 21:11:15 79° WSW
RESURS DK-1 3.9 21:09:01 10° NW 21:11:33 33° WNW 21:11:33 33° WNW
Cosmos 1626 4.3 21:14:11 10° NNW 21:16:03 25° NW 21:16:03 25° NW
Cosmos 2297 Rocket 3.1 21:15:12 10° WSW 21:20:38 46° NW 21:26:06 10° NNE
Cosmos 1452 Rocket 4.0 21:28:21 57° NW 21:28:21 57° NW 21:33:11 10° NNE
Cosmos 1934 Rocket 4.0 21:23:30 10° NNW 21:29:34 69° W 21:29:34 69° W
Cosmos 1943 3.5 21:31:26 10° NNW 21:36:12 63° NW 21:36:12 63° NW
Cosmos 2263 Rocket 4.1 21:41:34 19° NE 21:41:34 19° NE 21:43:17 10° NE
Mayak 1.6 21:36:53 10° NNE 21:37:06 11° NNE 21:37:06 11° NNE
Cosmos 2285 Rocket 4.2 21:40:01 10° NNW 21:45:53 64° NNE 21:45:53 64° NNE
CZ-4C R/B 3.4 21:51:43 10° NW 21:58:06 48° NNE 21:59:37 42° ENE
Cosmos 1605 Rocket 4.4 21:59:00 10° NNW 22:04:48 57° WNW 22:04:48 57° WNW
Cosmos 2100 Rocket 4.4 22:12:47 10° N 22:17:58 61° N 22:17:58 61° N
Terra 4.2 22:40:59 16° WNW 22:40:59 16° WNW 22:42:42 10° NW
USA 234 4.1 22:45:01 39° W 22:45:01 39° W 22:49:04 10° WNW
Cosmos 2082 Rocket 4.1 22:44:09 10° NNW 22:48:43 24° NE 22:49:42 23° NE
SJ 16-02 4.3 23:00:15 10° NNE 23:01:20 11° NE 23:01:35 11° NE
COSMOS 2406 4.3 22:59:37 10° NNW 23:03:37 41° N 23:03:37 41° N
Mayak 1.5 23:12:37 10° N 23:13:40 16° NNW 23:13:40 16° NNW
ATLAS CENTAUR R/B 4.0 23:22:56 21° NNE 23:22:56 21° NNE 23:24:35 10° NE
Cosmos 2263 Rocket 3.4 23:23:14 38° NNW 23:23:14 38° NNW 23:27:22 10° NNE
Cosmos 1833 Rocket 3.9 23:27:53 10° NNW 23:31:51 38° N 23:31:51 38° N
Cosmos 2278 Rocket 4.3 23:37:30 18° ENE 23:37:30 18° ENE 23:39:28 10° NE
CZ-4C R/B 3.5 23:40:13 10° NW 23:44:45 45° WNW 23:44:45 45° WNW
USA 267 3.6 23:42:51 10° ENE 23:47:57 57° NE 23:47:57 57° NE
SL-16 R/B 3.6 23:50:33 36° ENE 23:51:01 36° ENE 23:56:38 10° N
